Weather in Yuzhny

Russia / Novosibirsk Oblast     54°39′09″N   83°04′46″E
temp.,
°C
wind,
m/s
gust,
m/s
humid.,
%
clouds,
%
prec.,
mm/h
press.,
hPa
HPBL,
m
10 august, wed
wed1001:00+16ne69755 0.0 1009104
04:00+14ne46810 0.0 100980
07:00+13ne35880 0.0 101078
10:00+17ne56703 0.0 1010183
13:00+20ne46568 0.0 1010453
16:00+21nne45515 0.0 1010555
19:00+21ne57535 0.0 1009347
22:00+18ne46685 0.0 101054
11 august, thu
thu1101:00+16ene457590 0.0 101053
04:00+15ene238352 0.0 101024
07:00+14ne348555 0.0 101052
10:00+18ene576660 0.0 1010190
13:00+22ne56519 0.0 1010550
16:00+22nne564812 0.1 1009584
19:00+22nne812544 0.1 1009387
22:00+18nne71175100 0.0 1010146
12 august, fri
fri1201:00+17nne46856 0.1 101169
04:00+14nne45890 0.0 101164
07:00+14nne47840 0.0 1012110
10:00+16nne57650 0.0 1013190
13:00+18nne56560 0.0 1013358
16:00+20nne45474 0.0 1012407
19:00+20ne46440 0.0 1012377
22:00+16ene44570 0.0 101236
13 august, sat
sat1301:00+13e33665 0.0 101229
04:00+12ese22690 0.0 101114
07:00+12ese22690 0.0 101114
10:00+15sse12600 0.0 1010140
13:00+17w235667 0.0 1009469
16:00+17sw3659100 0.0 1007398
19:00+17w697571 0.3 1007184
22:00+15sw568064 0.8 100751
14 august, sun
sun1401:00+14wsw3372100 0.8 100620
04:00+14sw5774100 0.0 100495
07:00+13ssw6108599 1.1 1004172
10:00+14sw8138567 1.2 1003339
13:00+16wnw1115731 2.4 1004524
16:00+15w9146996 0.1 1005502
19:00+15wnw7126360 0.3 1006493
22:00+13wnw587368 0.0 1007194